AQI (112)

Current Conditions for Foresthill, CA. Clear skies, Dry   
Visibility: 10 miles
Space WX Alerts: CONTINUED ALERT:  Electron 2MeV Integral Flux exceeded 1000pfu ( Latest Alert ) - Issue Time: 2019 Sep 14 0859 UTC

  Summary / Temperature 

Current Temperature
68.1°F
20.1°C
(24/hr Ago)
69.1°F
(Apparent temp)
64.9°F
Comfortable
Wind Chill Graphs
68.2°F 

68.1°F/ 20.1°C
 --- Virtual Temp: 69.9°F ---

 Temp Rate:

 24/hr Difference:

 Avg Running Temp:

 Todays High:

 Todays Low:

 Y-days High:

 Y-days Low:

 Todays WChill:

 Y-days WChill:

 Evapotranspiration:

-1.0°F/hr 

-1°F

69.2°F

69.3°F 12:00am

68.2°F 1:05am

91.1°F 1:41pm

66.6°F 7:20am

68.2°F 1:05am

65.8°F 7:35am

0.005 in

115' Above Ground

 Temperature:

 6'AGL VRS 115'AGL:

 Avg Running Temp:

 Humidity:

 Todays High:

 Todays Low:

 Y-days High:

 Y-days Low:

70.0°F 

+1.9°F

71.0°F

34% 

71.0°F 12:00am

70.0°F 12:28am

88.0°F 1:08pm

69.0°F 6:44am

Temp & Humidity Graphs

  Wind 

Wind Speed

 1.0 mph

Gusting to

 8.0 mph

Wind from ESE

108°  ESE

Light air

 Avg speed:

 Wind Run:

 Peak Gust:

  2.0 mph 

2.0 miles

  9.0 mph 12:27am

  Almanac  

Moon age: 15 days,19 hours,6 minutes,99%

Waning Gibbous
99%
Illuminated
15 days in cycle

 Moonrise:

 Moonset:

 Sunrise:

 Sunset:

 Solar Noon:

8:22pm

7:59am

6:46am

7:13pm

12:59pm

2min 35s less daylight tomorrow 

  Solar Radiation 

(Current Solar)
  1005 W/m2
(Todays High)
 1005 W/m2@12:00am

Rain

 Rain Today:

 Rain Rate (/hr):

 Rain last hour:

 Rain Yesterday:

 This Month:

 Season Total:

17 Days Since Last Rain Day

0.00 in

0.000 in

0.00 in

0.00 in

0.00 in

0.01 in

Updated Time

Updated: 9/15/19  1:08am

(Updated  sec ago)

Humidity & Barometer

 Humidity:

 Wetbulb:

 Dew Point:

 Barometer:

37% 

55.1°F 

40.8°F 

29.862 inHg 

 Baro Trend:  Steady 
Northern Calif
Preparedness
Fire 
Level 

    UV Index  

(Current UV)
0.0  None
(Todays High) @ 12:00am
0.0   None

National Weather Service Forecast

Overnight

Overnight: Mostly Clear
Mostly Clear
Sunday

Sunday: Sunny
Sunny
Sunday
Night
Sunday Night: Partly Cloudy Likely
Partly Cloudy Likely
Monday

Monday: Showers, Thunderstorms Likely
Showers,
Monday
Night
Monday Night: Chance Rain Showers
Chance Rain Showers
Tuesday

Tuesday: Sunny
Sunny
Lo 64 °F ↑ Hi 81 °F ↓ Lo 54 °F ↑ Hi 64 °F Lo 51 °F Hi 72 °F

Foresthill Probe 2 Stats  
Foresthill Probe 2: is located on Thomas Street
at 3000 feet. The main Foresthill Weather site
is located on Melody ln at the 2860 foot elevation

Calm
65.7°F
18.7°C
Temp Rate:
-1.0°F
Calm
Gusting to
2.0 mph
(Humidity)
42%
Wind from ESE
121°  ESE
Updated: 15/09/19 - 01:12:10
 Todays High: 66.7°F 00:00
 Todays Low: 65.7°F 01:10
 Rain Today: 0.00 in
 Season Total: 0.00 in

Foresthill Wx: Monthly,Yearly, Highs and Lows 

Foresthill  
This Weather Data is coming from the main Foresthill
Weather site located on Melody ln at the 2860 foot
elevation
Not Foresthill Probe 2
Weather Data
Month
  High
Month
  Low
Year
High
Year
Low
Temp 91.1°F
9/14/19
52.7°F
9/11/19
92.2°F
8/16/19
24.5°F
2/18/19
Humidity 82%
9/8/19
15%
9/13/19
100%
1/9/19
14%
4/22/19
Heat Index 88.1°F
9/2/19
54.9°F
9/11/19
90.8°F
7/27/19
30.1°F
2/22/19
Wind Chill 91.1°F
9/14/19
48.8°F
9/11/19
92.2°F
8/16/19
11.5°F
2/11/19
Wind Gust 20 mph
9/5/19
0 mph
9/1/19
48 mph
2/27/19
0 mph
1/1/19
Barometer 30.10 in
9/12/19
29.82 in
9/4/19
30.54 in
1/23/19
29.37 in
2/14/19
ET 0.22 in
9/14/19
0.00 in
9/1/19
0.27 in
6/9/19
0.00 in
1/1/19
Dew Point 60.9°F
9/5/19
27.5°F
9/5/19
66.8°F
6/17/19
7.7°F
1/1/19
Pacific Satellite US Radar Satellite Imagery Sacramento,CA.  (click to enlarge)
NWS Weather Forecast - Summary
Updated: Saturday, Sepember 14, 2019 - 3:30pm PDT
A period of gusty winds and low relative humidities expected over the northern Sierra on Sunday
Current Interstate Highway Conditions for I-80 & US-50

[I 80: IN THE SAN FRANCISCO BAY AREA - SOLANO CO]
no traffic restrictions are reported for this area.

[I 80: IN THE NORTHERN CALIFORNIA AREA & SIERRA NEVADA]
no traffic restrictions are reported for this area.

[US 50: IN THE SACRAMENTO VALLEY & THE LAKE TAHOE BASIN]
no traffic restrictions are reported for this area.
NWS Weather Forecast: Overnight and Sunday (Updated: Sat, 14-Sep-2019 4:10pm PDT)
Overnight

Overnight: Mostly Clear
Mostly Clear

Lo 64 °F ↑
NWS forecast: Mostly clear. Low around 64, with temperatures rising to around 66 overnight. East southeast wind 6 to 9 mph.
Sunday

Sunday: Sunny
Sunny

Hi 81 °F ↓
NWS forecast: Sunny. High near 81, with temperatures falling to around 77 in the afternoon. South wind 8 to 12 mph.
YR.NO 10 Day Weather forecast
Last update: 09/14/2019 @ 12:39
Next update: 09/15/2019 @ 01:00
Provided by: 22
      Temperature Precipitation Pressure Wind  
Today
09/15/2019
00:00 06:00 59°F   29.88 inHg Light breeze from east 6 mph
  06:00 12:00 55°F   29.85 inHg Light breeze from east 6 mph
  12:00 18:00 81°F   29.85 inHg Gentle breeze from south-southwest 9 mph
  18:00 00:00 73°F   29.79 inHg Gentle breeze from south-southwest 8 mph
    (Click to enlarge)
meteogram

    Forecast for next 9 days

      Temperature Precip Pressure Wind  
Monday
09/16/2019
00:00 06:00 57°F   29.84 inHg Light breeze from southeast 6 mph
  06:00 12:00 55°F 0.65 in 29.88 inHg Light breeze from south-southeast 7 mph
  12:00 18:00 54°F 0.09 in 29.93 inHg Gentle breeze from south-southwest 9 mph
  18:00 00:00 54°F   29.94 inHg Light breeze from east 7 mph
      Temperature Precip Pressure Wind  
Tuesday
09/17/2019
00:00 06:00 46°F   29.97 inHg Light breeze from east-northeast 6 mph
  05:00 11:00 43°F   30.01 inHg Light breeze from east-northeast 5 mph
  11:00 17:00 64°F   30.04 inHg Light air from west 3 mph
  17:00 23:00 66°F   29.98 inHg Light breeze from west 4 mph
  23:00 05:00 46°F   29.95 inHg Light air from east-northeast 2 mph
      Temperature Precip Pressure Wind  
Wednesday
09/18/2019
05:00 11:00 43°F 0.02 in 29.93 inHg Light breeze from east 6 mph
  11:00 17:00 57°F 0.23 in 29.99 inHg Gentle breeze from south-southwest 8 mph
  17:00 23:00 55°F 0.04 in 29.93 inHg Light breeze from south-southwest 6 mph
  23:00 05:00 50°F   29.96 inHg Light breeze from east-southeast 6 mph
      Temperature Precip Pressure Wind  
Thursday
09/19/2019
05:00 11:00 45°F   29.95 inHg Light air from east-northeast 2 mph
  11:00 17:00 57°F   30.00 inHg Light air from west-northwest 2 mph
  17:00 23:00 63°F   29.93 inHg Light breeze from west-northwest 4 mph
  23:00 05:00 46°F   29.93 inHg Light breeze from east-northeast 6 mph
      Temperature Precip Pressure Wind  
Friday
09/20/2019
05:00 11:00 48°F   29.89 inHg Gentle breeze from east-northeast 8 mph
  11:00 17:00 68°F   29.89 inHg Light breeze from west-southwest 4 mph
  17:00 23:00 70°F   29.86 inHg Light breeze from west-northwest 5 mph
  23:00 05:00 50°F   29.90 inHg Light breeze from east-northeast 6 mph
      Temperature Precip Pressure Wind  
Saturday
09/21/2019
05:00 11:00 50°F   29.89 inHg Light breeze from east-northeast 6 mph
  11:00 17:00 73°F   29.93 inHg Light air from southwest 3 mph
  17:00 23:00 73°F   29.88 inHg Light breeze from west 4 mph
  23:00 05:00 54°F   29.90 inHg Light breeze from east-northeast 6 mph
      Temperature Precip Pressure Wind  
Sunday
09/22/2019
05:00 11:00 48°F   29.90 inHg Light breeze from east-northeast 6 mph
  11:00 17:00 77°F   29.92 inHg Light air from south-southwest 3 mph
  17:00 23:00 77°F   29.86 inHg Light air from southwest 3 mph
  23:00 05:00 55°F   29.89 inHg Light breeze from east-northeast 4 mph
      Temperature Precip Pressure Wind  
Monday
09/23/2019
05:00 11:00 52°F   29.88 inHg Light breeze from east-northeast 7 mph
  11:00 17:00 77°F   29.89 inHg Light breeze from south-southwest 4 mph
  17:00 23:00 77°F   29.85 inHg Light air from west-southwest 3 mph
  23:00 05:00 57°F   29.89 inHg Light breeze from east-northeast 7 mph
How Close Are We To this Month's Temperature Record ?
Updated Sunday, Sep 15, 2019- 1:10:01 AM

Current Temperature: 68.1°F

September's High: Temperature Record 95.9°F - Set on Wed, Sep 9, 2015 - 1:44:00 PM
We are currently 27.8°F Less than this Month's record High

September's Low: Temperature Record 44.1°F - Set on Sun, Sep 22, 2013 - 7:41:00 AM
We are currently 24°F More than this Month's record Low

Weather History For Sunday, September 15, 2019


On this Day - In Weather History ...
Data courtesy of weatherforyou.com
powered by Cumulus v1.9.3 (1059)
Ambient Weather VWS v14.00
Top Contact Website Map Copyright © 2007 - 2019 Foresthillweather.com Never base important decisions on this or any weather information obtained from the Internet